CZ-4C R/B, 44623

Orbit data source: Space-Track

CZ-4C R/B, 44623 is space debris in LEO originally from a launch on Fri, 04 Oct 2019 UTC launched from the Taiyaun Space Center, China (TSC). Debris objects in space refer to the collection of defunct objects orbiting the Earth. Examples of debris include non-operational satellites, rocket bodies, and fragments generated from explosions, collisions, or faulty payload assembly.

Loading next visibility...
CZ-4C R/B details
Identifier
44623, 2019-066B
Orbit
LEO
Last TLE update18 hours ago
Origin
Flag of CNCNSA (CN / PRC)
ManufacturerSAST
MissionSpacecraft
Bus & MotorCZ-4 STAGE 3, Unknown motor
Mass~1,000 kg wet, ~1,000 kg dry
Launch date (UTC)
2019-10-04 (5 years ago)
Launch vehicleUnknown
Launch site
Taiyaun Space Center, China (TSC)
Object type
Payload
Rocket body
Debris
Shape & HBRCyl, 2.9 m
Radar Cross Section7.676 m², Large (>1 m²)

Expand to show TLE details & history

TLE from 18 hours ago
0 CZ-4C R/B
1 44623U 19066B   24338.69600143  .00036937  00000-0  68603-3 0  9994
2 44623  97.8277  30.1418 0067292 340.3882  19.4779 15.46305315286862
Epoch: 2024-12-03T16:42Z
Definitive object data (Epoch: 2024-12-03T16:42:14.523Z)
Latitude-0.00003°
Longitude66.57949°
Altitude387.508 km
Speed7.702 km/s
True Right ascension02h 00m 34s
True Declination0° 00' 00"
Sunlit
Object was in full shadow at TLE epoch
Visualization TLE readout
Latitude62.88934°
Longitude-97.1411°
Altitude472.302 km
Speed7.617 km/s
Apparent Right ascension18h 18m 04s
Apparent Declination17° 23' 15"
Sunlit
Object is in daylight
Visualization observer readout
Local Sidereal Time08:11:39
Azimuth30.581° NE
Elevation-26.881°
Doppler factor1
Orbital elements
Apogee altitude470.271 km
Perigee altitude378.718 km
Semi-major axis6,802.632 km
Eccentricity0.0067292
Inclination97.8277°
RAAN30.1418°
Arg. of periapsis340.3882°
True anomaly19.73708°
Mean anomaly19.4779°
Eccentric anomaly19.60728°
Mean motion3.86837 °/min
BSTAR0.00068603
Orbital period93.06 mins
Loading maneuver chart data...
Loading historical data...
Loading historical data...
Loading historical data...
Loading historical data...
Loading historical data...
Loading historical data...
Loading historical data...
Other satellites on launch #66 in the year 2019 (2019-10-04 UTC)

CZ-4C R/B Visibility forecast

Observer location: undefined°, undefined

Span
Click to sort rows by Start time (UTC) header in descending order
Start Az.
Max El. time (UTC)
Max El. Az.
Max El.
End time (UTC)
End Az.
6 mins2024-12-04 16:33:13.698Z12.254° NNE2024-12-04 16:36:13.698Z200.94° SSW44.792°2024-12-04 16:39:13.698Z193.849° SSW
|